Peru, IN

8:51 AM EST on November 24, 2017 (GMT -0500)
Grissom Air Reserve Base

Weather History for KGUS - August, 2013

Change the Weather History Date:

Saturday, August 3, 2013

  Actual Average Record
Temperature  
Mean Temperature 72 °F -  
Max Temperature 80 °F 80 °F 93 °F (2012)
Min Temperature 63 °F 63 °F 55 °F (2014)
Cooling Degree Days 6    
Growing Degree Days 22 (Base 50)    
Moisture  
Dew Point 65 °F    
Average Humidity 91    
Maximum Humidity 100    
Minimum Humidity 51    
Precipitation  
Precipitation 1.31 in - - ()
Sea Level Pressure  
Sea Level Pressure 29.99 in    
Wind  
Wind Speed 7 mph (NNE)    
Max Wind Speed 17 mph    
Max Gust Speed 21 mph    
Visibility 8 miles    
Events Rain , Thunderstorm    
Averages and records for this station are not official NWS values.
T = Trace of Precipitation, MM = Missing Value Source: NWS Daily Summary

Daily Weather History Graph

Daily Weather History Graph

Search for Another Location

Airport or City:

Trip Planner

Search our weather history database for the weather conditions in past years. The results will help you decide how hot, cold, wet, or windy it might be!

Date:

Astronomy

Aug. 03, 2013 Rise Set
Actual Time 6:43 AM EDT 8:57 PM EDT
Civil Twilight 6:13 AM EDT 9:27 PM EDT
Nautical Twilight 5:35 AM EDT 10:05 PM EDT
Astronomical Twilight 4:54 AM EDT 10:46 PM EDT
Moon 3:52 AM EDT (8/3) 6:39 PM EDT (8/3)
Length of Visible Light 15h 14m
Length of Day
14h 13m
Waning Crescent, 9% of the Moon is Illuminated
Aug 3
Waning Crescent
Aug 6
New
Aug 14
First Quarter
Aug 20
Full
Aug 28
Last Quarter

Hourly Weather History & Observations

Time (EDT) Temp. Dew Point Humidity Pressure Visibility Wind Dir Wind Speed Gust Speed Precip Events Conditions
12:01 AM 69.8 °F 68.0 °F 94% 29.96 in 3.0 mi NNE 17.3 mph 20.7 mph N/A Rain , Thunderstorm Heavy Thunderstorms and Rain
12:06 AM 68.0 °F 68.0 °F 100% 29.97 in 1.8 mi NNE 10.4 mph - N/A Rain , Thunderstorm Heavy Thunderstorms and Rain
12:11 AM 68.0 °F 68.0 °F 100% 29.98 in 2.0 mi NNE 6.9 mph - N/A Rain , Thunderstorm Heavy Thunderstorms and Rain
12:21 AM 66.2 °F 66.2 °F 100% 29.98 in 1.5 mi East 6.9 mph - N/A Rain , Thunderstorm Heavy Thunderstorms and Rain
12:31 AM 66.2 °F 66.2 °F 100% 29.96 in 2.0 mi NNE 8.1 mph - N/A Rain , Thunderstorm Heavy Thunderstorms and Rain
12:36 AM 66.2 °F 66.2 °F 100% 29.96 in 1.8 mi NE 9.2 mph - N/A Rain , Thunderstorm Heavy Thunderstorms and Rain
12:41 AM 66.2 °F 66.2 °F 100% 29.96 in 1.2 mi NE 8.1 mph - N/A Rain , Thunderstorm Heavy Thunderstorms and Rain
12:46 AM 66.2 °F 66.2 °F 100% 29.96 in 1.8 mi NE 6.9 mph - N/A Rain , Thunderstorm Heavy Thunderstorms and Rain
12:51 AM 66.2 °F 66.2 °F 100% 29.97 in 3.0 mi NE 5.8 mph - N/A Rain , Thunderstorm Heavy Thunderstorms and Rain
12:52 AM 66.2 °F 66.2 °F 100% 29.97 in 4.0 mi NNE 5.8 mph - N/A Rain , Thunderstorm Heavy Rain
12:57 AM 66.2 °F 66.2 °F 100% 29.98 in 4.0 mi NE 5.8 mph - N/A Rain , Thunderstorm Heavy Rain
12:58 AM 66.2 °F 66.2 °F 100% 29.98 in 4.0 mi ENE 4.6 mph - 1.05 in Rain , Thunderstorm Heavy Rain
12:59 AM 66.2 °F 66.2 °F 100% 29.97 in 4.0 mi ENE 5.8 mph - N/A Rain , Thunderstorm Heavy Thunderstorms and Rain
1:14 AM 66.2 °F 66.2 °F 100% 29.97 in 5.0 mi East 5.8 mph - N/A Rain Rain
1:19 AM 66.2 °F 66.2 °F 100% 29.97 in 6.0 mi ENE 6.9 mph - N/A Rain Light Rain
1:24 AM 66.2 °F 66.2 °F 100% 29.97 in 8.0 mi ENE 6.9 mph - N/A Rain Light Rain
1:29 AM 66.2 °F 66.2 °F 100% 29.97 in 10.0 mi ENE 5.8 mph - N/A Rain Light Rain
1:39 AM 66.2 °F 66.2 °F 100% 29.97 in 5.0 mi ENE 3.5 mph - N/A Rain Light Rain
1:44 AM 66.2 °F 66.2 °F 100% 29.97 in 3.0 mi ENE 4.6 mph - N/A Rain Rain
1:49 AM 66.2 °F 66.2 °F 100% 29.97 in 4.0 mi ENE 5.8 mph - N/A Rain Light Rain
1:54 AM 66.2 °F 66.2 °F 100% 29.98 in 6.0 mi ENE 4.6 mph - N/A Rain Light Rain
1:58 AM 65.3 °F 65.3 °F 100% 29.98 in 7.0 mi NE 3.5 mph - 0.20 in Rain Light Rain
2:08 AM 64.4 °F 64.4 °F 100% 29.98 in 10.0 mi NE 2.3 mph - N/A Rain Light Rain
2:33 AM 64.4 °F 64.4 °F 100% 29.97 in 8.0 mi ENE 3.5 mph - N/A Rain Rain
2:48 AM 64.4 °F 64.4 °F 100% 29.97 in 9.0 mi SE 2.3 mph - N/A Rain Light Rain
2:53 AM 64.4 °F 64.4 °F 100% 29.97 in 9.0 mi SSE 3.5 mph - N/A Rain Light Rain
2:58 AM 65.1 °F 65.1 °F 100% 29.96 in 8.0 mi SE 2.3 mph - 0.04 in Rain Light Rain
3:08 AM 64.4 °F 64.4 °F 100% 29.96 in 9.0 mi SE 3.5 mph - N/A Rain Light Rain
3:15 AM 64.4 °F 64.4 °F 100% 29.96 in 10.0 mi SSE 4.6 mph - N/A   Mostly Cloudy
3:58 AM 65.1 °F 65.1 °F 100% 29.96 in 10.0 mi SSW 2.3 mph - 0.01 in   Mostly Cloudy
4:39 AM 64.4 °F 64.4 °F 100% 29.97 in 10.0 mi WSW 3.5 mph - N/A   Light Drizzle
4:52 AM 66.2 °F 66.2 °F 100% 29.97 in 10.0 mi West 2.3 mph - N/A   Mostly Cloudy
4:54 AM 66.2 °F 66.2 °F 100% 29.97 in 10.0 mi West 2.3 mph - N/A   Light Drizzle
4:58 AM 65.5 °F 65.5 °F 100% 29.97 in 10.0 mi West 2.3 mph - 0.00 in   Light Drizzle
5:08 AM 66.2 °F 66.2 °F 100% 29.97 in 10.0 mi Calm Calm - N/A   Mostly Cloudy
5:15 AM 66.2 °F 66.2 °F 100% 29.97 in 10.0 mi WNW 2.3 mph - N/A Rain Light Rain
5:28 AM 66.2 °F 66.2 °F 100% 29.96 in 10.0 mi Calm Calm - N/A   Mostly Cloudy
5:45 AM 66.2 °F 66.2 °F 100% 29.97 in 10.0 mi North 2.3 mph - N/A   Mostly Cloudy
5:53 AM 66.2 °F 66.2 °F 100% 29.96 in 10.0 mi Calm Calm - N/A   Light Drizzle
5:58 AM 65.7 °F 65.7 °F 100% 29.96 in 9.0 mi Calm Calm - 0.01 in Rain Light Rain
6:03 AM 66.2 °F 66.2 °F 100% 29.96 in 9.0 mi ENE 2.3 mph - N/A Rain Light Rain
6:07 AM 64.4 °F 64.4 °F 100% 29.96 in 7.0 mi NE 2.3 mph - N/A   Mostly Cloudy
6:27 AM 64.4 °F 64.4 °F 100% 29.96 in 10.0 mi Calm Calm - N/A   Mostly Cloudy
6:35 AM 64.4 °F 64.4 °F 100% 29.97 in 9.0 mi NNE 2.3 mph - N/A   Overcast
6:55 AM 64.4 °F 64.4 °F 100% 29.97 in 8.0 mi North 4.6 mph - N/A   Overcast
6:58 AM 65.1 °F 65.1 °F 100% 29.97 in 8.0 mi North 5.8 mph - 0.00 in   Overcast
7:23 AM 64.4 °F 64.4 °F 100% 29.98 in 5.0 mi North 3.5 mph - N/A   Overcast
7:58 AM 64.9 °F 64.9 °F 100% 29.98 in 4.0 mi North 5.8 mph - N/A   Overcast
8:13 AM 64.4 °F 64.4 °F 100% 29.99 in 10.0 mi NNE 3.5 mph - N/A   Overcast
8:37 AM 66.2 °F 66.2 °F 100% 29.99 in 10.0 mi NNE 3.5 mph - N/A   Mostly Cloudy
8:58 AM 67.3 °F 67.3 °F 100% 29.99 in 10.0 mi North 6.9 mph - N/A   Mostly Cloudy
9:58 AM 70.5 °F 66.6 °F 87% 30.01 in 10.0 mi Variable 6.9 mph - N/A   Scattered Clouds
10:31 AM 71.6 °F 66.2 °F 83% 29.99 in 10.0 mi North 6.9 mph - N/A   Partly Cloudy
10:58 AM 73.4 °F 66.0 °F 78% 30.00 in 10.0 mi Variable 5.8 mph - N/A   Clear
11:58 AM 75.6 °F 65.7 °F 71% 30.02 in 10.0 mi North 5.8 mph - N/A   Partly Cloudy
12:58 PM 75.4 °F 65.5 °F 71% 30.03 in 10.0 mi North 8.1 mph - N/A   Scattered Clouds
1:13 PM 77.0 °F 66.2 °F 69% 30.03 in 10.0 mi NW 5.8 mph - N/A   Mostly Cloudy
1:18 PM 77.0 °F 64.4 °F 65% 30.03 in 10.0 mi NNW 6.9 mph - N/A   Scattered Clouds
1:58 PM 77.5 °F 65.3 °F 66% 30.03 in 10.0 mi Variable 3.5 mph - N/A   Partly Cloudy
2:58 PM 79.7 °F 65.8 °F 62% 30.03 in 10.0 mi WNW 9.2 mph - N/A   Scattered Clouds
3:58 PM 79.3 °F 66.0 °F 64% 30.03 in 10.0 mi North 12.7 mph - N/A   Mostly Cloudy
4:58 PM 79.7 °F 62.4 °F 55% 30.03 in 10.0 mi NNW 9.2 mph - N/A   Scattered Clouds
5:58 PM 78.4 °F 61.3 °F 56% 30.04 in 10.0 mi NNW 12.7 mph - N/A   Scattered Clouds
6:58 PM 76.1 °F 56.8 °F 51% 30.05 in 10.0 mi North 16.1 mph - N/A   Clear
7:58 PM 73.2 °F 55.0 °F 53% 30.05 in 10.0 mi NNW 10.4 mph - N/A   Clear
8:58 PM 69.3 °F 52.9 °F 56% 30.06 in 10.0 mi NNW 6.9 mph - N/A   Clear
9:58 PM 64.9 °F 53.8 °F 67% 30.07 in 10.0 mi North 5.8 mph - N/A   Clear
10:58 PM 64.2 °F 52.9 °F 67% 30.09 in 10.0 mi North 5.8 mph - N/A   Clear
11:58 PM 63.1 °F 53.1 °F 70% 30.09 in 10.0 mi NW 4.6 mph - N/A   Clear